Temp
74 74 73 74 74 72 71 71 69 64 65 72 73 76 77 77 78 78 78 77 77 75 73 73 72 73 72 72 72 72 72 71 72 71 71 72 73 75
74 73 73 74 75 74 73 71 70 69 66 71 73 75 77 80 80 78 78 75 76 75 73 73 73 73 72 70 70 71 71 71 71 71 70 70 71 72
75 73 74 74 76 75 73 72 71 70 67 70 72 75 74 75 77 76 77 76 77 75 73 72 71 72 70 69 69 70 70 70 70 69 69 70 70 71
76 75 75 79 73 74 73 73 72 71 69 68 69 71 73 74 74 73 77 81 76 78 73 73 71 69 68 67 67 67 66 66 68 68 68 69 70 71
77 75 76 74 74 75 73 73 72 73 70 69 69 70 71 73 73 73 73 73 78 78 75 72 70 68 66 65 65 62 61 62 63 64 65 66 68 70
78 76 78 76 77 77 73 73 73 71 70 69 69 71 69 71 70 69 69 71 71 78 75 70 69 69 66 65 65 63 60 60 60 60 61 62 63 65
78 78 77 77 76 77 74 73 72 71 69 68 68 67 67 68 68 69 68 69 69 69 69 69 70 70 68 67 67 65 61 61 60 59 59 60 60 62
77 77 78 77 74 71 71 72 73 71 70 69 69 68 72 67 68 69 68 66 64 68 67 69 69 69 70 69 67 65 62 61 60 59 59 59 59 60
77 76 75 79 73 74 68 68 68 68 71 72 71 70 71 69 70 69 67 66 64 67 67 66 68 67 68 67 65 63 61 60 60 60 59 59 58 58
76 75 75 75 72 70 71 69 70 70 70 71 73 76 72 72 71 70 68 66 66 67 68 66 67 68 67 65 63 62 60 59 59 59 58 58 56 55
70 71 72 73 68 64 69 69 69 69 68 65 66 68 66 66 68 68 66 64 64 65 67 65 66 66 68 66 63 62 59 57 58 58 59 56 54 54
70 71 66 66 61 60 68 70 68 71 71 72 66 66 65 68 64 70 68 65 65 63 67 64 64 65 63 66 64 62 62 57 56 56 56 54 53 61
70 70 69 62 59 59 59 71 70 71 70 71 70 69 68 68 68 66 68 68 65 64 66 66 64 64 65 64 65 63 62 61 62 60 54 52 52 58
68 69 69 60 57 57 57 60 59 62 70 68 66 66 66 66 67 69 69 70 69 69 68 67 65 66 65 65 65 66 64 62 62 62 62 57 53 54
66 64 59 54 53 57 56 57 56 64 68 66 66 66 66 67 68 68 68 69 68 69 68 67 66 67 65 64 64 65 65 64 63 62 61 60 59 58
60 60 60 59 59 61 60 59 64 66 66 65 64 65 66 67 66 67 66 66 66 66 68 69 67 65 62 63 63 64 65 62 63 62 62 61 60 59
62 64 63 64 63 64 64 65 64 64 64 65 65 65 65 66 66 66 65 64 64 65 66 67 65 65 64 64 63 63 62 63 63 63 63 62 61 61
62 63 63 63 62 62 63 63 64 64 63 63 63 63 62 63 63 64 64 63 62 62 63 64 64 61 60 59 60 62 59 59 58 60 59 61 61 59
63 63 60 63 63 63 63 63 61 60 60 60 60 61 61 61 61 60 61 62 61 61 61 62 62 60 57 55 58 53 57 56 55 55 55 55 55 55
61 61 60 59 62 62 62 61 60 61 59 59 59 59 59 59 58 58 58 59 58 59 60 60 61 60 60 58 57 57 50 56 55 53 53 52 52 56
61 60 60 60 61 61 61 61 61 60 60 59 59 59 60 59 58 59 59 55 57 59 58 59 62 61 61 60 57 55 51 52 53 53 52 51 51 50
62 63 62 60 59 59 60 58 59 59 57 59 58 58 58 59 59 60 60 60 60 60 60 60 60 59 59 58 56 55 54 50 51 53 53 53 51 50
64 62 59 60 59 58 57 57 59 58 59 58 56 59 58 59 59 59 60 59 58 57 58 58 58 58 57 57 55 54 53 52 52 50 50 52 53 52
MSLP
1016.75 1016.83 1016.93 1016.78 1016.88 1017.01 1017.24 1017.54 1017.88 1018.04 1017.26 1016.18 1015.75 1014.65 1014.37 1014.14 1013.86 1013.66 1013.50 1013.09 1012.81 1012.61 1012.36 1012.09 1012.02 1011.74 1011.41 1011.45 1011.57 1011.84 1011.93 1012.10 1012.03 1011.95 1011.94 1011.96 1011.81 1011.67
1016.09 1016.29 1016.34 1016.31 1016.28 1016.25 1016.40 1016.70 1017.00 1017.17 1016.98 1016.16 1015.51 1014.82 1014.17 1013.81 1013.53 1013.32 1013.03 1012.71 1012.36 1012.09 1011.94 1011.66 1011.47 1011.22 1010.97 1011.02 1011.24 1011.49 1011.68 1011.80 1011.82 1011.85 1011.72 1011.57 1011.63 1011.48
1015.41 1015.55 1015.59 1015.65 1015.70 1015.68 1015.78 1015.95 1016.23 1016.39 1016.46 1015.67 1015.15 1014.50 1014.20 1013.90 1013.45 1013.10 1012.65 1012.47 1012.26 1011.94 1011.75 1011.47 1011.09 1010.65 1010.60 1010.76 1010.90 1011.10 1011.43 1011.40 1011.59 1011.62 1011.51 1011.26 1011.18 1011.11
1014.79 1014.96 1014.90 1014.99 1015.13 1015.04 1015.12 1015.32 1015.47 1015.41 1015.72 1015.44 1014.89 1014.50 1014.05 1013.60 1013.38 1013.11 1012.67 1012.25 1012.11 1011.71 1011.45 1011.08 1010.76 1010.47 1010.27 1010.48 1010.73 1010.92 1011.30 1011.19 1011.44 1011.48 1011.25 1011.03 1011.00 1011.03
1013.86 1014.07 1014.06 1014.25 1014.36 1014.36 1014.41 1014.54 1014.55 1014.55 1014.84 1014.91 1014.63 1014.07 1013.67 1013.31 1013.08 1012.88 1012.64 1012.43 1011.91 1011.51 1011.05 1010.92 1010.66 1010.35 1010.26 1010.40 1010.78 1011.00 1011.23 1011.26 1011.35 1011.57 1011.31 1011.18 1011.12 1011.29
1013.03 1013.13 1013.17 1013.31 1013.34 1013.41 1013.64 1013.80 1013.87 1014.05 1014.17 1014.24 1014.05 1013.79 1013.54 1013.07 1013.02 1012.99 1012.63 1012.33 1011.94 1011.30 1010.87 1010.83 1010.53 1010.25 1010.33 1010.54 1010.85 1011.16 1011.27 1011.17 1011.33 1011.65 1011.45 1011.44 1011.41 1011.44
1012.04 1012.22 1012.31 1012.29 1012.24 1012.32 1012.67 1012.82 1013.09 1013.36 1013.58 1013.73 1013.76 1013.52 1013.16 1013.04 1013.05 1012.72 1012.58 1012.18 1011.87 1011.39 1011.11 1010.85 1010.57 1010.06 1010.00 1010.20 1010.51 1010.96 1011.11 1011.24 1011.34 1011.62 1011.61 1011.70 1011.82 1011.99
1011.28 1011.34 1011.37 1011.36 1011.46 1011.51 1011.53 1011.61 1011.73 1012.29 1012.56 1012.82 1012.89 1012.86 1012.40 1012.34 1012.41 1012.62 1012.44 1012.48 1012.33 1011.36 1011.35 1010.68 1010.23 1009.99 1009.90 1009.71 1009.84 1010.25 1010.70 1011.13 1011.25 1011.59 1011.79 1011.94 1012.21 1012.34
1010.10 1010.37 1010.59 1010.57 1010.56 1010.83 1010.84 1010.99 1011.00 1011.20 1011.14 1011.33 1011.62 1011.62 1011.66 1011.35 1011.65 1012.01 1012.03 1012.21 1012.15 1011.32 1011.34 1010.91 1010.35 1010.36 1010.06 1009.70 1009.55 1009.98 1010.58 1011.01 1011.14 1011.37 1011.78 1012.09 1012.45 1012.79
1009.14 1009.42 1009.49 1009.67 1009.95 1010.16 1010.31 1010.43 1010.35 1010.32 1010.37 1010.52 1010.48 1010.25 1010.40 1010.38 1010.57 1010.88 1011.25 1011.49 1011.44 1011.18 1011.23 1011.26 1010.60 1010.63 1010.41 1010.17 1009.99 1010.46 1010.97 1011.23 1011.10 1011.31 1011.71 1012.10 1012.49 1012.82
1009.17 1009.21 1009.26 1009.37 1009.74 1009.85 1009.80 1009.57 1009.77 1009.77 1009.57 1009.72 1009.67 1009.28 1009.41 1009.64 1009.89 1010.63 1010.92 1011.25 1011.17 1011.01 1010.94 1011.19 1010.72 1010.59 1010.59 1010.61 1010.43 1010.64 1011.28 1011.46 1011.43 1011.42 1011.65 1012.00 1012.41 1012.83
1008.09 1008.35 1008.75 1009.22 1009.29 1010.63 1010.12 1009.32 1008.95 1008.40 1009.15 1009.28 1009.68 1009.36 1009.35 1009.44 1009.54 1009.60 1009.88 1010.52 1010.71 1010.86 1010.36 1010.81 1010.70 1010.57 1010.67 1010.59 1010.54 1010.64 1011.05 1011.41 1011.63 1011.63 1011.78 1012.12 1012.47 1012.87
1007.46 1007.61 1007.53 1007.70 1007.48 1007.11 1008.49 1008.67 1007.94 1007.42 1007.62 1008.24 1008.50 1008.36 1008.31 1008.53 1008.78 1009.08 1009.00 1009.33 1009.85 1009.90 1009.76 1009.89 1010.37 1010.50 1010.59 1010.72 1010.55 1010.46 1010.71 1011.20 1011.40 1011.64 1012.01 1012.29 1012.62 1012.84
1006.51 1006.24 1005.97 1006.50 1006.21 1006.72 1006.65 1007.04 1006.91 1007.13 1007.12 1007.18 1007.78 1007.81 1007.75 1007.98 1007.96 1008.11 1008.20 1008.36 1008.39 1008.61 1008.91 1009.21 1009.91 1010.21 1010.47 1010.62 1010.53 1010.45 1010.61 1010.86 1011.19 1011.51 1011.45 1011.86 1012.38 1012.64
1005.83 1005.41 1005.29 1005.68 1006.06 1005.79 1006.09 1006.43 1006.33 1005.97 1005.71 1005.62 1006.55 1007.41 1007.35 1007.45 1007.68 1007.70 1007.81 1007.62 1007.97 1008.29 1008.75 1008.83 1009.27 1010.02 1010.56 1010.58 1010.65 1010.50 1010.56 1010.69 1010.93 1011.20 1011.53 1011.80 1012.11 1012.39
1006.05 1006.07 1005.89 1006.10 1006.26 1005.94 1006.49 1006.02 1006.35 1005.74 1005.74 1005.81 1006.52 1007.04 1007.03 1007.29 1007.68 1007.48 1007.68 1007.77 1008.03 1008.44 1008.52 1008.62 1009.01 1009.60 1010.08 1010.40 1010.51 1010.60 1010.61 1010.81 1010.87 1011.00 1011.20 1011.47 1011.62 1011.80
1005.92 1006.04 1006.20 1006.58 1006.72 1006.44 1006.22 1006.06 1006.06 1006.17 1006.48 1006.37 1006.67 1006.75 1006.75 1006.85 1006.81 1007.26 1007.35 1007.51 1007.80 1008.19 1008.49 1008.95 1009.48 1009.83 1010.06 1010.23 1010.57 1010.66 1010.76 1010.84 1010.85 1010.78 1010.89 1011.01 1010.99 1011.07
1006.13 1006.21 1006.46 1006.51 1006.75 1006.31 1006.32 1006.19 1006.27 1006.63 1006.86 1006.91 1007.03 1007.04 1007.00 1006.78 1007.13 1007.14 1007.00 1007.30 1007.93 1008.07 1008.48 1008.96 1009.53 1010.08 1010.39 1010.44 1010.51 1010.65 1010.82 1011.05 1011.15 1011.04 1010.87 1010.86 1010.94 1011.00
1006.27 1006.22 1006.36 1006.42 1006.27 1006.01 1006.32 1006.17 1006.55 1006.89 1007.17 1007.40 1007.29 1007.44 1007.27 1007.35 1007.51 1008.07 1007.71 1007.44 1008.11 1008.55 1008.55 1009.12 1009.63 1010.09 1010.56 1010.85 1010.99 1011.07 1011.27 1011.37 1011.38 1011.41 1011.37 1011.48 1011.43 1011.48
1006.07 1006.21 1006.32 1006.44 1006.51 1006.54 1006.35 1006.53 1006.80 1007.25 1007.37 1007.62 1007.62 1007.49 1007.70 1007.65 1008.27 1008.31 1008.16 1008.61 1008.70 1009.24 1009.17 1009.35 1009.37 1009.78 1010.36 1010.52 1010.96 1011.22 1011.49 1011.55 1011.68 1011.84 1011.90 1011.80 1011.49 1011.39
1006.05 1006.30 1006.32 1006.60 1006.57 1006.59 1006.56 1006.89 1006.77 1007.04 1007.39 1007.74 1007.89 1008.18 1008.11 1008.15 1008.11 1008.20 1008.49 1008.48 1008.71 1009.05 1009.53 1009.59 1009.28 1009.24 1009.69 1010.23 1011.02 1011.25 1011.61 1011.59 1011.64 1011.67 1012.04 1012.12 1012.16 1011.89
1005.81 1005.90 1006.16 1006.25 1006.32 1006.46 1006.42 1006.79 1007.09 1007.28 1007.29 1007.52 1007.63 1007.99 1007.98 1007.96 1007.87 1007.90 1008.14 1008.30 1008.48 1008.67 1008.69 1008.97 1009.13 1009.37 1009.71 1010.09 1010.57 1010.80 1011.09 1011.40 1011.46 1011.48 1012.07 1012.30 1012.32 1012.22
1005.73 1005.78 1005.85 1005.97 1006.23 1006.40 1006.66 1007.11 1007.13 1007.20 1007.34 1007.27 1007.41 1007.72 1007.88 1007.49 1007.68 1007.87 1008.10 1008.26 1008.39 1008.67 1008.82 1009.10 1009.30 1009.49 1009.70 1009.89 1010.09 1010.42 1010.84 1011.33 1011.56 1011.77 1011.97 1012.01 1012.03 1012.09
Wind_Speed
6 6 5 4 4 4 4 4 4 3 3 5 3 3 3 3 5 5 5 9 11 11 12 11 9 12 9 8 9 10 8 6 7 8 8 8 9 9
5 6 6 5 6 4 4 4 4 5 4 4 4 3 4 4 6 5 6 7 9 13 13 14 12 12 9 10 8 9 7 6 6 8 7 7 9 10
9 7 8 6 7 5 4 4 4 4 4 4 4 3 3 4 6 4 5 5 5 10 10 11 11 12 9 7 9 9 7 5 5 5 8 8 8 7
12 9 10 8 9 7 5 7 6 5 4 7 3 3 5 4 5 4 4 4 4 7 11 11 14 11 8 8 8 7 6 5 4 5 6 4 4 7
12 11 11 8 9 7 7 7 6 4 4 4 5 3 4 3 3 2 3 4 4 8 10 8 11 10 5 6 7 6 7 6 4 3 1 3 5 7
13 13 14 12 14 11 8 9 8 6 4 4 4 5 4 3 2 3 4 2 4 5 5 3 6 7 2 4 5 5 6 8 6 5 5 6 7 11
14 14 13 15 16 14 8 9 9 7 4 4 4 3 3 3 3 2 3 3 4 2 3 3 3 4 3 7 6 8 7 7 8 7 6 7 8 10
14 14 14 15 16 17 17 15 11 9 9 6 6 7 10 4 2 3 2 1 4 2 3 7 3 5 3 4 9 11 10 8 8 8 6 7 6 9
15 13 11 12 13 10 13 17 14 14 14 10 11 9 9 7 5 3 4 3 4 4 2 4 2 3 3 5 9 9 9 9 8 7 7 7 7 8
13 14 14 14 9 9 9 8 9 9 12 9 10 12 10 7 6 6 6 4 2 3 2 3 2 2 3 3 8 5 4 6 7 7 8 7 8 9
6 6 8 9 11 14 10 11 9 10 9 15 16 15 12 11 6 4 4 2 2 2 1 1 2 1 1 1 2 3 0 3 5 6 7 8 9 9
7 11 10 5 9 14 11 11 11 13 6 9 7 10 11 12 11 9 5 4 3 2 4 2 2 2 2 1 2 3 2 1 3 5 6 7 9 4
7 6 8 17 19 17 19 13 13 10 11 12 10 6 4 6 7 7 7 6 4 4 5 4 2 1 1 2 1 2 3 2 3 3 4 7 9 6
11 9 8 14 14 16 13 17 16 14 9 6 4 4 3 4 5 6 9 8 5 6 6 5 3 3 0 2 2 1 2 3 3 3 4 5 8 7
3 4 7 7 6 6 7 9 9 6 9 6 5 5 6 4 6 4 4 5 4 3 4 5 4 3 1 1 2 1 1 2 4 3 3 4 4 4
5 2 1 2 4 3 2 1 3 1 3 3 3 4 3 3 4 3 4 4 3 2 3 5 5 6 4 3 2 1 2 1 1 3 3 3 3 4
3 2 1 1 2 2 1 0 1 1 2 1 2 2 2 2 3 3 3 2 3 4 3 3 3 3 2 1 1 2 1 2 1 1 2 3 4 5
1 2 3 3 4 4 2 2 0 2 3 2 2 1 2 2 2 3 3 4 3 2 3 3 3 2 1 2 3 3 1 2 1 2 1 1 1 2
3 2 2 3 3 3 3 3 3 3 3 3 5 3 4 6 7 5 5 5 4 2 3 1 2 2 2 0 1 9 2 0 1 2 1 1 1 2
1 2 3 3 2 2 4 4 4 3 3 3 2 4 5 5 4 3 5 4 5 3 3 0 1 2 3 4 2 0 8 1 1 0 2 2 2 2
3 2 2 1 1 1 2 2 2 3 3 4 2 2 4 5 5 5 4 6 6 4 4 4 5 9 4 4 1 2 2 7 4 2 0 2 3 3
3 3 3 3 2 2 1 2 2 1 2 2 2 4 5 3 3 4 5 4 4 3 3 3 2 3 2 3 2 2 1 2 5 9 6 1 1 2
4 4 2 3 1 1 1 1 2 2 1 2 2 2 3 2 2 0 1 1 2 3 2 3 3 2 3 3 4 2 4 3 3 2 1 3 3 3
Wind_Direction
228 235 229 244 222 203 190 171 173 252 278 300 288 255 273 278 279 291 289 277 282 278 278 280 263 299 280 222 209 210 230 256 271 280 283 281 261 245
221 220 229 232 239 233 210 184 190 195 243 214 262 267 284 305 289 303 288 295 307 313 316 315 314 293 257 214 202 205 216 245 264 283 287 285 267 245
230 218 231 218 237 233 220 217 209 183 221 277 243 258 271 278 305 299 320 314 306 308 324 317 313 300 256 198 207 200 209 212 253 269 285 281 262 211
232 233 235 232 230 228 213 219 224 199 194 261 249 256 242 270 269 302 303 303 305 308 312 311 320 316 260 191 205 192 197 194 227 261 303 230 226 159
224 223 229 219 230 226 219 225 228 221 198 213 253 242 266 258 299 292 283 289 293 302 304 336 331 332 255 192 189 186 188 188 185 241 173 136 152 154
226 227 232 231 239 231 223 225 228 225 219 218 242 260 241 263 235 251 298 268 293 301 302 305 303 315 222 207 223 201 188 179 175 207 152 143 119 123
226 228 229 229 227 223 217 225 221 225 221 225 252 245 246 266 237 247 254 288 289 266 302 288 287 286 243 223 205 208 193 193 179 194 172 154 140 127
229 231 236 232 232 228 218 221 204 207 226 209 233 231 252 216 206 239 234 339 314 266 331 302 215 282 286 216 193 187 185 191 182 185 187 173 166 152
227 226 231 238 239 229 225 233 238 237 223 216 231 226 244 213 181 227 213 198 233 274 7 295 8 342 354 327 184 175 168 182 184 175 184 174 168 166
224 226 229 240 237 223 229 230 224 216 220 218 228 244 224 219 194 185 194 210 276 276 179 264 328 13 349 9 65 91 153 182 177 167 172 170 168 173
258 257 250 249 252 232 220 223 226 237 229 234 238 235 237 223 184 146 204 177 264 238 218 217 293 334 316 341 72 75 104 196 191 176 176 166 170 173
226 238 223 193 344 294 254 237 233 238 226 249 236 249 245 247 213 213 177 186 183 264 210 169 295 52 317 220 159 128 141 208 193 176 173 171 162 156
238 216 207 199 204 216 225 238 234 248 231 227 237 225 195 206 213 206 191 179 172 221 210 148 166 332 209 276 236 158 158 160 173 167 176 171 172 169
229 226 239 228 216 214 196 220 238 241 234 204 209 221 216 222 224 213 196 197 189 185 170 146 168 168 262 309 275 131 168 167 165 183 182 188 203 216
213 244 275 270 217 186 211 212 208 233 227 164 186 208 214 229 243 202 185 192 191 180 173 163 148 141 172 234 285 253 193 180 184 167 168 180 187 184
124 158 184 327 315 92 142 204 294 287 192 160 171 205 194 185 221 218 195 174 152 141 174 162 157 152 162 197 195 301 292 15 156 196 186 189 195 204
118 91 98 254 273 292 309 217 239 303 285 289 212 225 217 202 188 206 200 130 147 151 144 145 134 127 86 151 152 96 77 108 38 7 179 209 208 209
123 189 210 206 226 214 221 212 102 57 52 68 56 49 60 69 22 256 171 137 127 128 149 192 140 112 55 52 34 150 113 144 322 359 25 159 319 54
207 207 206 222 219 197 190 106 94 105 104 78 94 69 67 55 74 31 341 101 108 80 75 143 134 108 78 333 310 37 150 176 22 357 23 8 320 32
96 114 129 146 144 134 121 138 145 151 135 128 91 94 95 97 58 49 76 44 53 33 38 328 118 110 145 187 205 146 13 145 145 304 321 320 246 267
145 153 158 192 167 115 126 166 151 161 171 174 185 204 181 172 165 171 170 167 174 165 177 175 190 174 152 109 84 245 145 43 54 126 92 6 337 342
166 166 207 209 214 231 199 163 127 130 127 179 177 201 191 178 168 185 193 175 188 169 168 137 120 112 124 160 218 206 184 124 52 64 62 48 207 328
49 54 72 194 218 121 172 204 169 149 182 178 188 240 207 148 140 87 71 88 112 125 134 149 166 158 143 167 181 201 145 144 154 162 315 9 1 305